[[{"header":{"parameterUnit":"m.s-1","parameterCategory":1,"la1":30.2991,"la2":30.254,"lo1":-89.0895,"lo2":-89.0444,"dy":0.0017,"dx":0.0017,"nx":28,"ny":28,"refTime":"2024-05-10T09:00:00:Z","depth":0,"parameterNumber":2,"parameterNumberName":"U-component_of_WINDS"},"data":[0,0,0,0,0,0,0,0,0,0,0,0,0,0,0,0,0,0,0,0,0,0,0,0,0,0,0,0,0,0,0,0,0,0,0,0,0,0,0,0,0,0,0,0,0,0,0,0,0,0,0,0,0,0,0,0,0,0,1.1675,1.1675,0,1.1715,1.1715,1.1716,1.1725,1.1724,1.1724,1.1724,1.1764,1.1765,1.1767,0,0,0,0,0,0,0,0,0,0,0,0,0,1.1605,1.1607,1.1675,1.1675,1.1676,1.1715,1.1715,1.1716,1.1725,1.1724,1.1724,1.1724,1.1764,1.1765,1.1767,0,0,0,0,0,0,0,0,0,0,0,0,0,1.1639,1.1607,1.1675,1.1685,1.1686,1.1714,1.1715,1.1716,1.1725,1.1724,1.1724,1.1724,1.1763,1.1765,1.1767,1.1787,0,0,1.1773,1.1774,0,0,0,0,0,0,0,0,1.1637,1.1642,1.1683,1.1684,1.1686,1.1714,1.1705,1.174,1.1725,1.171,1.1724,1.1723,1.1748,1.1751,1.1759,1.1789,1.1791,1.1773,1.1774,1.1775,1.1776,0,0,0,0,0,0,0,1.1635,1.164,1.1691,1.1684,1.1685,1.1687,1.1692,1.1712,1.1731,1.1711,1.1712,1.1717,1.1748,1.1757,1.176,1.1792,1.1773,1.1775,1.1776,1.1777,1.184,1.1841,0,0,0,0,0,0,1.1631,1.1638,1.1689,1.1692,1.166,1.1689,1.1694,1.1706,1.1731,1.1734,1.1717,1.1717,1.1754,1.1758,1.1762,1.1787,1.1775,1.1777,1.1778,1.184,1.184,1.1841,0,0,0,0,0,0,1.163,1.1636,1.1688,1.1665,1.1672,1.1691,1.1704,1.1707,1.1716,1.1735,1.1738,1.1723,1.1754,1.1759,1.1781,1.1789,1.1778,1.178,1.1839,1.184,1.1841,1.1838,0,0,0,0,0,0,1.1628,1.1635,1.1643,1.1665,1.1673,1.1706,1.1704,1.1708,1.1719,1.1719,1.1741,1.1744,1.1754,1.1778,1.1783,1.1791,1.1781,1.1838,1.1839,1.184,1.1838,1.1839,1.184,0,0,0,0,0,1.1625,1.1641,1.1644,1.165,1.1684,1.1707,1.1711,1.1722,1.172,1.1728,1.174,1.1744,1.1787,1.178,1.1786,1.1795,1.1838,1.1839,1.184,1.1837,1.1839,1.184,0,0,0,0,0,0,1.1618,1.1644,1.1647,1.1671,1.1687,1.1708,1.1719,1.1723,1.174,1.174,1.1753,1.1757,1.1779,1.1789,1.1781,1.1816,1.1813,1.1815,1.1808,1.181,1.1811,1.1808,1.1783,0,0,0,0,0,1.162,1.1637,1.1658,1.1676,1.1684,1.17,1.1711,1.1718,1.1735,1.1741,1.1755,1.1772,1.1789,1.18,1.1817,1.1839,1.1844,1.1848,1.1849,1.185,1.1852,1.1864,1.1867,1.1844,1.1844,1.1844,0,0,1.1622,1.1638,1.1648,1.1675,1.1689,1.1706,1.1706,1.1724,1.1736,1.1744,1.1766,1.1777,1.1795,1.1818,1.1828,1.1827,1.1859,1.1852,1.1852,1.1853,1.1866,1.1868,1.187,1.1845,1.1845,1.1845,0,0,1.1636,1.165,1.1667,1.168,1.1701,1.1711,1.1715,1.1736,1.1744,1.1766,1.1772,1.1787,1.1817,1.183,1.184,1.1859,1.1863,1.1864,1.187,1.1882,1.1883,1.1885,1.1892,1.1894,1.1866,1.1866,1.1866,0,1.1637,1.1663,1.1675,1.1693,1.1704,1.1713,1.173,1.1742,1.1766,1.1774,1.1773,1.181,1.1823,1.1848,1.1853,1.1861,1.1866,1.1862,1.1882,1.1884,1.1886,1.1892,1.1894,1.1866,1.1866,1.1866,1.1866,0,1.1663,1.1681,1.1692,1.1716,1.1729,1.1746,1.176,1.1772,1.1778,1.1789,1.1811,1.1827,1.1847,1.1854,1.186,1.188,1.1879,1.188,1.1877,1.1888,1.1894,1.1896,1.1866,1.1866,1.1866,1.1866,0,0,1.1672,1.1703,1.1707,1.1718,1.1741,1.1755,1.1773,1.1793,1.1802,1.1819,1.1834,1.1859,1.186,1.1872,1.1879,1.189,1.1904,1.1889,1.189,1.1891,1.1927,1.1926,1.1928,1.1906,1.1907,1.1907,1.1925,0,1.1689,1.1721,1.1732,1.1758,1.1775,1.1783,1.1799,1.1814,1.1825,1.184,1.1852,1.1869,1.1869,1.1876,1.1887,1.19,1.1911,1.1898,1.192,1.1921,1.1915,1.1932,1.1931,1.1946,1.1927,1.1928,1.1928,0,1.1711,1.1729,1.1757,1.1778,1.1785,1.1799,1.1818,1.1833,1.1851,1.1858,1.1871,1.1878,1.1897,1.1893,1.1918,1.191,1.1919,1.1927,1.1928,1.193,1.1925,1.1934,1.1952,1.1954,1.1932,1.1932,1.1932,0,1.1715,1.1746,1.1767,1.1776,1.1801,1.181,1.1821,1.1838,1.185,1.1867,1.1874,1.1893,1.1903,1.1918,1.193,1.1926,1.1954,1.1951,1.196,1.196,1.1966,1.1965,1.1985,1.1972,1.1972,1.1972,1.1972,0,1.1732,1.1749,1.1769,1.1781,1.18,1.1813,1.1831,1.1843,1.1858,1.1873,1.1882,1.1895,1.191,1.1926,1.1935,1.1955,1.196,1.1966,1.1968,1.1965,1.1964,1.1971,1.197,1.1973,1.1973,1.1973,1.1972,0,1.1739,1.1754,1.1777,1.1799,1.1805,1.1818,1.1836,1.1849,1.186,1.1878,1.1883,1.1901,1.192,1.1933,1.1957,1.1964,1.1985,1.1987,1.1979,1.198,1.1988,1.1987,1.2013,1.2017,1.2001,1.2002,1.2002,0,1.1749,1.1762,1.1785,1.1796,1.1807,1.1824,1.1836,1.185,1.1861,1.1883,1.1893,1.1912,1.1928,1.1958,1.1973,1.1991,1.1994,1.2002,1.1997,1.1993,1.1994,1.1993,1.1994,1.2002,1.2002,1.2002,1.2002,0,1.1763,1.177,1.1787,1.1807,1.1821,1.1836,1.1852,1.1861,1.1877,1.189,1.1909,1.1922,1.1947,1.1966,1.1986,1.1997,1.2002,1.2004,1.2007,1.2004,1.1998,1.2001,1.198,1.2003,1.2003,1.2003,1.2003,1.2003,1.1772,1.1784,1.1803,1.1821,1.1835,1.185,1.1862,1.1875,1.1892,1.1913,1.192,1.194,1.1958,1.1986,1.1997,1.2013,1.2012,1.2017,1.2018,1.2019,1.2018,1.1996,1.2017,1.2017,1.2017,1.2017,1.2017,0,1.1787,1.1799,1.1817,1.1839,1.1854,1.1858,1.1876,1.1888,1.1905,1.1922,1.1937,1.196,1.1979,1.1995,1.2014,1.2024,1.2027,1.2028,1.2028,1.203,1.2018,1.2013,1.2026,1.2026,1.2026,1.2026,1.2026,1.2026,1.1796,1.1817,1.1826,1.1853,1.1865,1.1885,1.1895,1.1909,1.1922,1.1947,1.1962,1.1973,1.1989,1.201,1.2027,1.2032,1.2038,1.2039,1.2044,1.2032,1.2031,1.203,1.2025,1.2041,1.2041,1.2055,1.2055,1.2055]},{"header":{"parameterUnit":"m.s-1","parameterCategory":1,"la1":30.2991,"la2":30.254,"lo1":-89.0895,"lo2":-89.0444,"dy":0.0017,"dx":0.0017,"nx":28,"ny":28,"refTime":"2024-05-10T09:00:00:Z","depth":0,"parameterNumber":3,"parameterNumberName":"V-component_of_WINDS"},"data":[0,0,0,0,0,0,0,0,0,0,0,0,0,0,0,0,0,0,0,0,0,0,0,0,0,0,0,0,0,0,0,0,0,0,0,0,0,0,0,0,0,0,0,0,0,0,0,0,0,0,0,0,0,0,0,0,0,0,4.5621,4.5623,0,4.5781,4.5783,4.5785,4.5802,4.58,4.5799,4.5797,4.5961,4.5967,4.5973,0,0,0,0,0,0,0,0,0,0,0,0,0,4.5333,4.5338,4.5621,4.5623,4.5625,4.5781,4.5783,4.5785,4.5802,4.58,4.5798,4.5796,4.5959,4.5966,4.5973,0,0,0,0,0,0,0,0,0,0,0,0,0,4.5472,4.534,4.5621,4.5652,4.5657,4.578,4.5783,4.5786,4.5803,4.58,4.5798,4.5795,4.5957,4.5966,4.5974,4.6078,0,0,4.6001,4.6005,0,0,0,0,0,0,0,0,4.5464,4.5483,4.5646,4.565,4.5656,4.5769,4.5742,4.5884,4.5803,4.5747,4.5797,4.5794,4.5899,4.5913,4.5948,4.6085,4.6092,4.6002,4.6007,4.6011,4.6014,0,0,0,0,0,0,0,4.5454,4.5476,4.5685,4.5648,4.5654,4.5659,4.5676,4.5769,4.5835,4.5752,4.5754,4.5772,4.5902,4.594,4.5952,4.6095,4.6002,4.601,4.6015,4.6019,4.6329,4.6332,0,0,0,0,0,0,4.5439,4.5468,4.5679,4.5689,4.5552,4.5667,4.5686,4.5735,4.5834,4.5847,4.5774,4.5772,4.5926,4.5942,4.5958,4.6088,4.6011,4.6019,4.6025,4.6326,4.6329,4.6333,0,0,0,0,0,0,4.5432,4.5457,4.5673,4.5579,4.5607,4.5674,4.573,4.574,4.5778,4.5851,4.5863,4.5801,4.5924,4.5946,4.6049,4.6094,4.6023,4.6032,4.6322,4.6327,4.6331,4.6347,0,0,0,0,0,0,4.5424,4.5455,4.5494,4.558,4.5612,4.576,4.5732,4.5744,4.5793,4.5792,4.5879,4.5891,4.5924,4.6035,4.6057,4.6105,4.6038,4.6319,4.6324,4.633,4.6343,4.6351,4.6359,0,0,0,0,0,4.5414,4.5492,4.5496,4.5521,4.5662,4.5763,4.5781,4.5817,4.5796,4.5837,4.5885,4.5888,4.6085,4.6046,4.6071,4.6121,4.6316,4.6323,4.6329,4.6339,4.6349,4.6358,0,0,0,0,0,0,4.5409,4.5503,4.5509,4.5617,4.5682,4.5765,4.5817,4.5827,4.5899,4.5895,4.5938,4.5957,4.6059,4.61,4.6055,4.6228,4.6199,4.6211,4.6197,4.6208,4.6216,4.6204,4.6046,0,0,0,0,0,4.542,4.5494,4.5572,4.566,4.5692,4.5749,4.5794,4.5817,4.5886,4.5913,4.5968,4.6035,4.6113,4.6163,4.6237,4.6349,4.6369,4.6396,4.6404,4.641,4.642,4.6485,4.6499,4.6354,4.6354,4.6354,0,0,4.5445,4.5505,4.5549,4.5661,4.5713,4.579,4.5772,4.5852,4.591,4.5926,4.6027,4.607,4.6148,4.6256,4.6306,4.6294,4.6465,4.6419,4.6423,4.643,4.6494,4.6507,4.6519,4.6359,4.6358,4.6357,0,0,4.5528,4.5581,4.5661,4.5715,4.5795,4.5833,4.5853,4.5936,4.5965,4.6067,4.6082,4.6151,4.6282,4.6338,4.6384,4.6492,4.6499,4.6516,4.6558,4.662,4.6632,4.6642,4.6683,4.6697,4.6525,4.6525,4.6525,0,4.5548,4.5663,4.57,4.5782,4.5832,4.585,4.5933,4.5983,4.6084,4.6119,4.6103,4.6271,4.6324,4.6447,4.6474,4.6509,4.6535,4.6506,4.6627,4.6638,4.6648,4.6688,4.6703,4.6527,4.6527,4.6526,4.6526,0,4.5685,4.5764,4.5819,4.5918,4.5974,4.6055,4.6106,4.6159,4.6177,4.6217,4.6323,4.6388,4.6478,4.6509,4.6527,4.6636,4.6626,4.6618,4.6589,4.6663,4.6701,4.6716,4.6529,4.6528,4.6528,4.6528,0,0,4.5768,4.5888,4.5908,4.5954,4.6046,4.6109,4.6192,4.628,4.6326,4.6395,4.6468,4.658,4.6574,4.6626,4.6651,4.6706,4.6791,4.6692,4.6695,4.671,4.6918,4.6924,4.6941,4.6797,4.68,4.6802,4.6912,0,4.5863,4.6012,4.605,4.6177,4.6252,4.6273,4.6346,4.6411,4.6451,4.6522,4.6567,4.6647,4.6632,4.6664,4.6719,4.6769,4.6834,4.6762,4.6866,4.6869,4.6847,4.696,4.6967,4.7067,4.6927,4.693,4.6931,0,4.5994,4.6068,4.6202,4.6287,4.6321,4.6385,4.6471,4.6538,4.6613,4.6639,4.6699,4.6719,4.6809,4.6776,4.6901,4.6851,4.6896,4.6927,4.6932,4.6944,4.6905,4.6977,4.71,4.7116,4.6955,4.6953,4.6951,0,4.6043,4.6176,4.6275,4.6314,4.6415,4.646,4.6505,4.6578,4.6629,4.6705,4.6739,4.6824,4.687,4.6936,4.698,4.6951,4.7103,4.7072,4.7128,4.7127,4.7159,4.7157,4.7293,4.7186,4.7186,4.7186,4.7186,0,4.6146,4.6228,4.6299,4.636,4.6454,4.6497,4.6589,4.6634,4.6699,4.6771,4.6793,4.6859,4.6913,4.6987,4.7022,4.7122,4.7143,4.7167,4.7176,4.7166,4.7163,4.7197,4.7191,4.719,4.7189,4.7188,4.7188,0,4.6217,4.6268,4.6377,4.6465,4.6489,4.6554,4.663,4.6691,4.6733,4.6823,4.6846,4.6913,4.7002,4.7052,4.7163,4.7187,4.7299,4.7304,4.7274,4.7278,4.7332,4.7327,4.7496,4.7521,4.7396,4.7397,4.7398,0,4.628,4.6344,4.6439,4.6489,4.6534,4.6613,4.6667,4.6713,4.6768,4.6861,4.6911,4.7001,4.7076,4.7218,4.7277,4.7363,4.7371,4.7424,4.7384,4.7373,4.7374,4.737,4.7378,4.7431,4.7432,4.7433,4.7434,0,4.6387,4.6409,4.6486,4.6572,4.6636,4.6705,4.6775,4.6814,4.6873,4.6934,4.7025,4.7084,4.7199,4.7289,4.7381,4.7428,4.7442,4.7446,4.7464,4.7455,4.7436,4.745,4.7295,4.7442,4.7441,4.7441,4.744,4.744,4.6457,4.6516,4.6593,4.6678,4.6736,4.6801,4.6863,4.6914,4.6991,4.7089,4.7112,4.7209,4.7286,4.7411,4.7461,4.7538,4.7529,4.7554,4.7561,4.7567,4.757,4.7423,4.7555,4.7555,4.7555,4.7555,4.7555,0,4.6567,4.6618,4.6696,4.6793,4.6861,4.6868,4.6946,4.7003,4.7088,4.7158,4.7232,4.7339,4.7428,4.7495,4.7586,4.7636,4.7645,4.7659,4.7656,4.7667,4.7572,4.7548,4.765,4.765,4.765,4.765,4.765,4.765,4.6632,4.6733,4.6765,4.6896,4.6947,4.7043,4.7087,4.7148,4.7205,4.7324,4.7398,4.7441,4.7511,4.7608,4.7691,4.7708,4.7742,4.7755,4.7774,4.7684,4.7673,4.7664,4.7642,4.7761,4.7762,4.7863,4.7864,4.7864]}]]